Flag for U.S.A. Weather past 2 weeks in Grand Rapids, Michigan, U.S.A.

Now
45 °F

Overcast.


Feels Like: 40 °F
Forecast: 43 / 61 °F
Wind: 9 mph from East

Location: Kent County International Airport


UV Index: 0 (Low)

Visibility: 10 mi


Pressure: 30.11 "Hg

Humidity: 56%

Dew point: 30 °F

Location of Grand RapidsLocation

Historic Weather in Grand Rapids

°F

Grand Rapids temperature yesterday

Maximum temperature yesterday: 57 °F (at 4:53 PM)
Minimum temperature yesterday: 32 °F (at 5:53 AM)
Average temperature yesterday: 44 °F

Past Weeks' High & Low Weather Summary

 TemperatureHumidityPressure
High77 °F (Apr 21, 12:53 PM)93% (Apr 22, 2:53 AM)30.47 "Hg (Apr 22, 2:53 AM)
Low22 °F (Apr 16, 5:53 AM)20% (Apr 11, 3:53 PM)29.33 "Hg (Apr 14, 5:53 AM)
Average49 °F54%30.03 "Hg
* Reported Apr 9 2:53 AM — Apr 24 2:53 AM, Grand Rapids, Weather by CustomWeather, © 2014

Note: Actual official high and low records may vary slightly from our data, if they occured in-between our weather recording intervals... More about our weather records

Advertising

Historic Weather Conditions — Data for Previous 24 hours

 ConditionsComfort  
Time TempWeatherWind HumidityBarometerVisibility
2:53 AM
Apr 24
45 °FPassing clouds.5 mph56%30.10 "Hg10 mi
1:53 AM45 °FClear.5 mph53%30.10 "Hg10 mi
12:53 AM47 °FClear.3 mph46%30.09 "Hg10 mi
11:53 PM
Apr 23
47 °FOvercast.No wind44%30.10 "Hg10 mi
10:53 PM48 °FOvercast.3 mph43%30.12 "Hg10 mi
9:53 PM48 °FOvercast.6 mph44%30.13 "Hg10 mi
8:53 PM48 °FOvercast.6 mph46%30.12 "Hg10 mi
7:53 PM50 °FOvercast.9 mph41%30.11 "Hg10 mi
6:53 PM52 °FOvercast.12 mph40%30.11 "Hg10 mi
5:53 PM54 °FOvercast.14 mph40%30.10 "Hg10 mi
4:53 PM57 °FPartly sunny.3 mph24%30.11 "Hg10 mi
3:53 PM55 °FPartly sunny.3 mph24%30.13 "Hg10 mi
2:53 PM55 °FScattered clouds.3 mph27%30.13 "Hg10 mi
1:53 PM53 °FPartly sunny.5 mph28%30.13 "Hg10 mi
12:53 PM51 °FPartly sunny.7 mph31%30.15 "Hg10 mi
11:53 AM49 °FScattered clouds.7 mph36%30.14 "Hg10 mi
10:53 AM45 °FScattered clouds.7 mph44%30.15 "Hg10 mi
9:53 AM42 °FScattered clouds.9 mph53%30.15 "Hg10 mi
8:53 AM38 °FPassing clouds.13 mph65%30.15 "Hg10 mi
7:53 AM34 °FPassing clouds.9 mph76%30.14 "Hg10 mi
6:53 AM32 °FClear.8 mph79%30.12 "Hg10 mi
5:53 AM32 °FClear.8 mph79%30.11 "Hg10 mi
4:53 AM33 °FClear.8 mph75%30.09 "Hg10 mi
Weather by CustomWeather, © 2014

See weather overview